Location: Bottom School (historical)
(37.9078°N, 89.3593°W)
Time: 15:11:00
(UTC+00:00)

Cosmos 1570 Rocket - Visible Passes

Search period start: 03 July 2022 00:00
Search period end: 13 July 2022 00:00
Orbit: 763 x 788 km, 74.1° (Epoch: 02 July)

Date Brightness Start Highest point End Pass type
(mag) Time Alt. Az. Time Alt. Az. Time Alt. Az.
03 Jul 4.1 08:20:18 38° S 08:22:14 68° ESE 08:27:28 10° NNE visible
03 Jul 6.0 10:02:07 10° W 10:04:59 15° WNW 10:07:51 10° NNW visible
04 Jul 4.9 07:46:14 34° SE 07:47:28 39° ESE 07:52:19 10° NE visible
04 Jul 5.5 09:26:40 14° WSW 09:29:48 23° WNW 09:33:57 10° N visible
05 Jul 5.6 07:12:09 23° ESE 07:12:46 24° E 07:16:52 10° NE visible
05 Jul 4.8 08:52:34 26° WSW 08:54:42 37° WNW 08:59:34 10° N visible
06 Jul 6.2 06:38:02 14° E 06:38:09 14° E 06:40:42 10° ENE visible
06 Jul 4.1 08:18:27 47° SW 08:19:43 62° WNW 08:24:56 10° NNE visible
07 Jul 3.9 07:44:18 70° SSE 07:44:49 80° ESE 07:50:06 10° NNE visible
07 Jul 6.1 09:25:27 10° W 09:27:41 13° NW 09:29:57 10° NNW visible
08 Jul 4.6 07:10:07 46° E 07:10:07 46° E 07:15:02 10° NNE visible
08 Jul 5.7 08:50:32 17° W 08:52:28 20° WNW 08:56:20 10° NNW visible
09 Jul 5.5 06:35:55 27° E 06:35:55 27° E 06:39:41 10° NE visible
09 Jul 5.0 08:16:20 30° W 08:17:21 32° WNW 08:22:03 10° N visible
10 Jul 6.1 06:01:41 16° E 06:01:41 16° E 06:03:50 10° ENE visible
10 Jul 4.3 07:42:06 52° W 07:42:20 53° WNW 07:47:29 10° N visible
11 Jul 4.0 07:07:50 76° N 07:07:50 76° N 07:12:42 10° NNE visible
11 Jul 6.3 08:49:08 10° WNW 08:50:25 11° NW 08:51:42 10° NW visible
12 Jul 4.7 06:33:33 47° ENE 06:33:33 47° ENE 06:37:43 10° NNE visible
12 Jul 5.8 08:13:58 16° WNW 08:15:10 18° WNW 08:18:39 10° NNW visible
